DW4604 Weather Reports


time (UTC)temp
F
wind
direction
speed
knots
gust
knots
rain 1hr
in
rain 24hr
in
rain mn
in
humidity
%
barometer
mb
20260905135438 71 0 0.0 0.0 0.00 0.02 0.02 60 1015.1
20260905134940 71 0 0.0 0.0 0.00 0.02 0.02 61 1015.2
20260905134439 71 0 0.0 0.0 0.00 0.02 0.02 61 1015.2
20260905133938 70 0 0.0 0.0 0.00 0.02 0.02 60 1015.2
20260905133439 71 0 0.0 0.0 0.00 0.02 0.02 60 1015.1
20260905132939 70 0 0.0 0.0 0.00 0.02 0.02 61 1015.1
20260905132439 70 0 0.0 0.0 0.00 0.02 0.02 61 1015.2
20260905131439 73 0 0.0 0.0 0.00 0.02 0.02 59 1015.2
20260905130939 73 0 0.0 0.0 0.00 0.02 0.02 57 1015.3
20260905130439 72 0 0.0 0.0 0.00 0.02 0.02 60 1015.2
20260905125938 72 0 0.0 0.0 0.00 0.02 0.02 58 1015.2
20260905125440 72 0 0.0 0.0 0.00 0.02 0.02 59 1015.3
20260905124939 71 0 0.0 0.0 0.00 0.02 0.02 60 1015.3
20260905124439 72 0 0.0 0.0 0.00 0.02 0.02 59 1015.4
20260905123939 72 0 0.0 0.0 0.00 0.02 0.02 60 1015.4
20260905123439 70 0 0.0 0.0 0.00 0.02 0.02 63 1015.4
20260905122939 68 0 0.0 0.0 0.00 0.02 0.02 62 1015.4
20260905122440 69 0 0.0 0.0 0.00 0.02 0.02 61 1015.4
20260905121939 69 0 0.0 0.0 0.00 0.02 0.02 60 1015.4
20260905121440 70 0 0.0 0.0 0.00 0.02 0.02 59 1015.4
20260905120939 71 0 0.0 0.0 0.00 0.02 0.02 58 1015.5
20260905120438 71 0 0.0 0.0 0.00 0.02 0.02 60 1015.4
20260905115939 70 0 0.0 0.0 0.00 0.02 0.02 58 1015.5
20260905115438 71 0 0.0 0.0 0.00 0.02 0.02 59 1015.5
20260905113938 67 0 0.0 0.0 0.00 0.02 0.02 63 1015.5
20260905113440 68 0 0.0 0.0 0.00 0.02 0.02 64 1015.5
20260905112939 68 0 0.0 0.0 0.00 0.02 0.02 63 1015.4
20260905112439 70 0 0.0 0.0 0.00 0.02 0.02 61 1015.4
20260905111939 71 0 0.0 0.0 0.00 0.02 0.02 66 1015.3
20260905111441 71 0 0.0 0.0 0.00 0.02 0.02 66 1015.3
20260905110939 70 0 0.0 0.0 0.00 0.02 0.02 65 1015.3
20260905110439 70 0 0.0 0.0 0.00 0.02 0.02 65 1015.5
20260905105439 70 0 0.0 0.0 0.00 0.02 0.02 63 1015.3
20260905104939 69 0 0.0 0.0 0.00 0.02 0.02 65 1015.5
20260905104439 69 0 0.0 0.0 0.00 0.02 0.02 64 1015.3
20260905103939 68 0 0.0 0.0 0.00 0.02 0.02 64 1015.4
20260905103440 70 0 0.0 0.0 0.00 0.02 0.02 64 1015.4
20260905102940 70 0 0.0 0.0 0.00 0.02 0.02 67 1015.5
20260905101939 67 0 0.0 0.0 0.00 0.02 0.02 73 1015.5
20260905101439 66 0 0.0 0.0 0.00 0.02 0.02 72 1015.5
20260905100939 65 0 0.0 0.0 0.00 0.02 0.02 72 1015.5
20260905100439 65 0 0.0 0.0 0.00 0.02 0.02 71 1015.4
20260905095940 66 0 0.0 0.0 0.00 0.02 0.02 72 1015.4
20260905095440 67 0 0.0 0.0 0.00 0.02 0.02 70 1015.3
20260905094940 67 0 0.0 0.0 0.00 0.02 0.02 70 1015.2
20260905093940 69 0 0.0 0.0 0.00 0.02 0.02 67 1015.1
20260905093439 69 0 0.0 0.0 0.00 0.02 0.02 67 1015.1
20260905092440 69 0 0.0 0.0 0.00 0.02 0.02 69 1015.3
20260905091439 69 0 0.0 0.0 0.00 0.02 0.02 70 1015.3
20260905090939 67 0 0.0 0.0 0.00 0.02 0.02 72 1015.3
20260905085940 66 0 0.0 0.0 0.00 0.02 0.02 76 1015.3
20260905085440 65 0 0.0 0.0 0.00 0.02 0.02 77 1015.3
20260905084941 65 0 0.0 0.0 0.00 0.02 0.02 76 1015.3
20260905084439 65 0 0.0 0.0 0.00 0.02 0.02 77 1015.1
20260905083939 65 0 0.0 0.0 0.00 0.02 0.02 77 1015.2
20260905083439 66 0 0.0 0.0 0.00 0.02 0.02 78 1015.1
20260905081440 65 0 0.0 0.0 0.00 0.02 0.02 80 1015.3
20260905080940 65 0 0.0 0.0 0.00 0.02 0.02 82 1015.3
20260905080439 63 0 0.0 0.0 0.00 0.02 0.02 82 1015.3
20260905075939 63 0 0.0 0.0 0.00 0.02 0.02 82 1015.4
20260905074939 62 0 0.0 0.0 0.00 0.02 0.02 85 1015.3
20260905074439 61 0 0.0 0.0 0.00 0.02 0.02 86 1015.2
20260905073939 60 0 0.0 0.0 0.00 0.02 0.02 86 1015.2
20260905073439 60 0 0.0 0.0 0.00 0.02 0.02 87 1015.2
20260905072939 60 0 0.0 0.0 0.00 0.02 0.02 86 1015.3
20260905071440 59 0 0.0 0.0 0.00 0.02 0.02 89 1015.1
20260905070940 59 0 0.0 0.0 0.00 0.02 0.02 89 1015.1
20260905070440 59 0 0.0 0.0 0.00 0.02 0.02 89 1015.0
20260905065940 59 0 0.0 0.0 0.00 0.02 0.02 90 1014.8
20260905064940 59 0 0.0 0.0 0.00 0.02 0.02 90 1014.7
20260905064441 59 0 0.0 0.0 0.00 0.02 0.02 90 1014.7
20260905063939 59 0 0.0 0.0 0.00 0.02 0.02 90 1014.7
20260905062942 59 0 0.0 0.0 0.00 0.02 0.02 90 1014.6
20260905061942 58 0 0.0 0.0 0.00 0.02 0.02 91 1014.4
20260905060940 58 0 0.0 0.0 0.00 0.02 0.02 90 1014.3
20260905060440 58 0 0.0 0.0 0.00 0.02 0.02 90 1014.4
20260905055940 58 0 0.0 0.0 0.00 0.02 0.02 90 1014.3
20260905055440 58 0 0.0 0.0 0.00 0.02 0.02 90 1014.3
20260905054940 58 0 0.0 0.0 0.01 0.02 0.02 90 1014.2
20260905054440 58 0 0.0 0.0 0.01 0.02 0.02 91 1014.3
20260905053940 58 0 0.0 0.0 0.01 0.02 0.02 91 1013.9
20260905053441 58 0 0.0 0.0 0.01 0.02 0.02 91 1013.8
20260905052941 58 0 0.0 0.0 0.01 0.02 0.02 92 1013.8
20260905052440 58 0 0.0 0.0 0.01 0.02 0.02 92 1013.8
20260905051940 58 0 0.0 0.0 0.01 0.02 0.02 93 1013.8
20260905050440 58 0 0.0 0.0 0.01 0.02 0.02 93 1013.8
20260905045941 58 0 0.0 0.0 0.01 0.02 0.02 93 1013.7
20260905045440 59 0 0.0 0.0 0.00 0.02 0.02 93 1013.3
20260905044941 59 0 0.0 0.0 0.00 0.02 0.02 93 1013.1
20260905044441 59 0 0.0 0.0 0.00 0.02 0.02 93 1013.3
20260905043940 59 0 0.0 0.0 0.00 0.02 0.02 93 1013.3
20260905043441 59 0 0.0 0.0 0.00 0.02 0.02 93 1013.2
20260905042940 59 0 0.0 0.0 0.00 0.02 0.02 93 1013.1
20260905042441 59 0 0.0 0.0 0.00 0.02 0.02 93 1013.1
20260905041941 59 0 0.0 0.0 0.00 0.02 0.02 93 1013.0
20260905041440 60 0 0.0 0.0 0.00 0.02 0.02 92 1013.2
20260905040940 60 0 0.0 0.0 0.00 0.02 0.02 93 1013.1
20260905040440 60 0 0.0 0.0 0.00 0.02 0.02 93 1013.2
20260905035942 60 0 0.0 0.0 0.00 0.02 0.02 93 1012.9
20260905035441 60 0 0.0 0.0 0.00 0.02 0.02 93 1012.8
20260905034941 60 0 0.0 0.0 0.00 0.02 0.02 93 1012.8
20260905034441 60 0 0.0 0.0 0.00 0.02 0.02 93 1012.7
20260905033940 60 0 0.0 0.0 0.00 0.02 0.02 93 1012.5
20260905033441 60 0 0.0 0.0 0.00 0.02 0.02 93 1012.4
20260905032940 60 0 0.0 0.0 0.00 0.02 0.02 93 1012.4
20260905031441 60 0 0.0 0.0 0.00 0.02 0.02 93 1012.0
20260905030941 60 0 0.0 0.0 0.00 0.02 0.02 93 1012.2
20260905030441 60 0 0.0 0.0 0.00 0.02 0.02 93 1012.0
20260905025942 60 0 0.0 0.0 0.00 0.02 0.02 93 1011.7
20260905025440 60 0 0.0 0.0 0.00 0.02 0.02 93 1011.9
20260905024940 60 0 0.0 0.0 0.00 0.02 0.02 93 1011.9
20260905024440 60 0 0.0 0.0 0.00 0.02 0.02 93 1012.0
20260905023940 60 0 0.0 0.0 0.00 0.02 0.02 93 1012.1
20260905023440 60 0 0.0 0.0 0.00 0.02 0.02 93 1012.0
20260905022940 60 0 0.0 0.0 0.00 0.02 0.02 93 1012.2
20260905022441 60 0 0.0 0.0 0.00 0.02 0.02 93 1012.0
20260905021441 60 0 0.0 0.0 0.00 0.02 0.02 93 1012.4
20260905020441 60 0 0.0 0.0 0.00 0.02 0.02 93 1012.2
20260905015941 60 0 0.0 0.0 0.01 0.02 0.02 93 1012.2
20260905015440 60 0 0.0 0.0 0.01 0.02 0.02 93 1012.1
20260905014941 60 0 0.0 0.0 0.02 0.02 0.02 93 1012.2
20260905014441 60 0 0.0 0.0 0.02 0.02 0.02 92 1012.2
20260905013941 60 0 0.0 0.0 0.02 0.02 0.02 92 1011.8
20260905013441 60 0 0.0 0.0 0.02 0.02 0.02 92 1011.7
20260905012941 60 0 0.0 0.0 0.02 0.02 0.02 92 1011.5
20260905012441 60 0 0.0 0.0 0.02 0.02 0.02 91 1011.8
20260905011941 60 0 0.0 0.0 0.02 0.02 0.02 91 1011.7
20260905011441 61 0 0.0 0.0 0.02 0.02 0.02 90 1012.0
20260905010941 61 0 0.0 0.0 0.02 0.02 0.02 89 1011.8
20260905010441 61 0 0.0 0.0 0.02 0.02 0.02 88 1011.8
20260905005441 63 0 0.0 0.0 0.01 0.01 0.01 84 1011.8
20260905004942 64 0 0.0 0.0 0.00 0.00 0.00 81 1012.0
20260905004441 64 0 0.0 0.0 0.00 0.00 0.00 80 1011.4
20260905003941 64 0 0.0 0.0 0.00 0.00 0.00 79 1011.9
20260905003441 65 0 0.0 0.0 0.00 0.00 0.00 78 1011.8
20260905002941 65 0 0.0 0.0 0.00 0.00 0.00 78 1011.5
20260905002442 65 0 0.0 0.0 0.00 0.00 0.00 77 1011.1
20260905001941 65 0 0.0 0.0 0.00 0.00 0.00 77 1011.3
20260905001441 65 0 0.0 0.0 0.00 0.00 0.00 76 1011.5
20260905000941 65 0 0.0 0.0 0.00 0.00 0.00 75 1011.3
20260905000441 65 0 0.0 0.0 0.00 0.00 0.00 75 1011.3
20260904235441 66 0 0.0 0.0 0.00 0.00 0.00 74 1011.1
20260904234941 66 0 0.0 0.0 0.00 0.00 0.00 74 1011.0
20260904234441 66 0 0.0 0.0 0.00 0.00 0.00 73 1011.2
20260904233941 67 0 0.0 0.0 0.00 0.00 0.00 73 1011.3
20260904233442 67 0 0.0 0.0 0.00 0.00 0.00 73 1011.0
20260904232942 66 0 0.0 0.0 0.00 0.00 0.00 74 1011.1
20260904232442 66 0 0.0 0.0 0.00 0.00 0.00 75 1010.9
20260904231943 66 0 0.0 0.0 0.00 0.00 0.00 75 1010.8
20260904231442 67 0 0.0 0.0 0.00 0.00 0.00 74 1010.6
20260904230443 67 0 0.0 0.0 0.00 0.00 0.00 73 1010.6
20260904225941 67 0 0.0 0.0 0.00 0.00 0.00 73 1010.6
20260904225441 67 0 0.0 0.0 0.00 0.00 0.00 74 1010.5
20260904224941 67 0 0.0 0.0 0.00 0.00 0.00 74 1010.4
20260904224441 67 0 0.0 0.0 0.00 0.00 0.00 74 1010.3
20260904223941 67 0 0.0 0.0 0.00 0.00 0.00 74 1010.3
20260904223441 68 0 0.0 0.0 0.00 0.00 0.00 72 1010.3
20260904222943 68 0 0.0 0.0 0.00 0.00 0.00 71 1010.1
20260904222442 69 0 0.0 0.0 0.00 0.00 0.00 70 1009.8
20260904221941 69 0 0.0 0.0 0.00 0.00 0.00 70 1009.7
20260904221442 70 0 0.0 0.0 0.00 0.00 0.00 70 1009.8
20260904220942 71 0 0.0 0.0 0.00 0.00 0.00 72 1009.8
20260904220442 71 0 0.0 0.0 0.00 0.00 0.00 73 1009.6
20260904215945 72 0 0.0 0.0 0.00 0.00 0.00 74 1009.4
20260904215442 72 0 0.0 0.0 0.00 0.00 0.00 73 1009.2
20260904214443 73 0 0.0 0.0 0.00 0.00 0.00 71 1008.9
20260904213441 74 0 0.0 0.0 0.00 0.00 0.00 69 1008.8
20260904212941 74 0 0.0 0.0 0.00 0.00 0.00 68 1008.7
20260904212443 74 0 0.0 0.0 0.00 0.00 0.00 68 1007.5
20260904211942 74 0 0.0 0.0 0.00 0.00 0.00 68 1007.5
20260904210942 73 0 0.0 0.0 0.00 0.00 0.00 69 1007.4
20260904210442 73 0 0.0 0.0 0.00 0.00 0.00 70 1007.5
20260904205942 73 0 0.0 0.0 0.00 0.00 0.00 70 1007.6
20260904205442 72 0 0.0 0.0 0.00 0.00 0.00 72 1007.5
20260904204942 72 0 0.0 0.0 0.00 0.00 0.00 72 1007.6
20260904204442 72 0 0.0 0.0 0.00 0.00 0.00 72 1007.5
20260904203942 71 0 0.0 0.0 0.00 0.00 0.00 73 1007.5
20260904203442 71 0 0.0 0.0 0.00 0.00 0.00 73 1007.5
20260904202942 71 0 0.0 0.0 0.00 0.00 0.00 74 1007.5
20260904202443 71 0 0.0 0.0 0.00 0.00 0.00 74 1007.5
20260904201942 71 0 0.0 0.0 0.00 0.00 0.00 74 1007.6
20260904201442 71 0 0.0 0.0 0.00 0.00 0.00 75 1007.6
20260904200442 70 0 0.0 0.0 0.00 0.00 0.00 76 1007.7
20260904194942 69 0 0.0 0.0 0.00 0.00 0.00 78 1007.9
20260904194442 69 0 0.0 0.0 0.00 0.00 0.00 78 1007.9
20260904193942 69 0 0.0 0.0 0.00 0.00 0.00 79 1008.1
20260904192942 69 0 0.0 0.0 0.00 0.00 0.00 80 1008.0
20260904192443 68 0 0.0 0.0 0.00 0.00 0.00 80 1008.0
20260904191942 68 0 0.0 0.0 0.00 0.00 0.00 81 1008.1
20260904191443 68 0 0.0 0.0 0.00 0.00 0.00 82 1008.2
20260904190942 68 0 0.0 0.0 0.00 0.00 0.00 82 1008.3
20260904190442 67 0 0.0 0.0 0.00 0.00 0.00 82 1008.3
20260904185942 67 0 0.0 0.0 0.00 0.00 0.00 84 1008.4
20260904185442 66 0 0.0 0.0 0.00 0.00 0.00 84 1008.5
20260904184942 66 0 0.0 0.0 0.00 0.00 0.00 84 1008.6
20260904184442 67 0 0.0 0.0 0.00 0.00 0.00 83 1008.7
20260904183942 67 0 0.0 0.0 0.00 0.00 0.00 83 1008.8
20260904183442 67 0 0.0 0.0 0.00 0.00 0.00 82 1008.9
20260904182943 67 0 0.0 0.0 0.00 0.00 0.00 82 1008.9
20260904182443 68 0 0.0 0.0 0.00 0.00 0.00 82 1009.0
20260904181943 68 0 0.0 0.0 0.00 0.00 0.00 82 1009.1
20260904181442 67 0 0.0 0.0 0.00 0.00 0.00 82 1009.1
20260904180443 67 0 0.0 0.0 0.00 0.00 0.00 82 1009.1
20260904175943 68 0 0.0 0.0 0.00 0.00 0.00 82 1009.1
20260904175442 68 0 0.0 0.0 0.00 0.00 0.00 81 1008.9
20260904174942 68 0 0.0 0.0 0.00 0.00 0.00 81 1008.9
20260904174442 69 0 0.0 0.0 0.00 0.00 0.00 80 1008.8
20260904173942 69 0 0.0 0.0 0.00 0.00 0.00 79 1008.8
20260904173442 69 0 0.0 0.0 0.00 0.00 0.00 79 1008.8
20260904172443 70 0 0.0 0.0 0.00 0.00 0.00 77 1008.6
20260904171942 71 0 0.0 0.0 0.00 0.00 0.00 77 1008.6
20260904171442 71 0 0.0 0.0 0.00 0.00 0.00 76 1008.6
20260904170942 71 0 0.0 0.0 0.00 0.00 0.00 76 1008.7
20260904170442 72 0 0.0 0.0 0.00 0.00 0.00 75 1008.7
20260904165443 73 0 0.0 0.0 0.00 0.00 0.00 73 1008.8
20260904164943 73 0 0.0 0.0 0.00 0.00 0.00 72 1008.8
20260904164443 74 0 0.0 0.0 0.00 0.00 0.00 72 1008.8
20260904163943 74 0 0.0 0.0 0.00 0.00 0.00 71 1008.8
20260904163443 74 0 0.0 0.0 0.00 0.00 0.00 71 1008.9
20260904162942 75 0 0.0 0.0 0.00 0.00 0.00 70 1009.0
20260904162442 75 0 0.0 0.0 0.00 0.00 0.00 69 1009.1
20260904161943 75 0 0.0 0.0 0.00 0.00 0.00 69 1009.1
20260904161443 75 0 0.0 0.0 0.00 0.00 0.00 69 1009.1
20260904160943 75 0 0.0 0.0 0.00 0.00 0.00 69 1009.2
20260904155945 75 0 0.0 0.0 0.00 0.00 0.00 69 1009.2
20260904155443 75 0 0.0 0.0 0.00 0.00 0.00 69 1009.4
20260904154943 76 0 0.0 0.0 0.00 0.00 0.00 69 1009.4
20260904154444 76 0 0.0 0.0 0.00 0.00 0.00 69 1009.4
20260904153942 76 0 0.0 0.0 0.00 0.00 0.00 67 1009.4
20260904153443 76 0 0.0 0.0 0.00 0.00 0.00 68 1009.6
20260904152943 77 0 0.0 0.0 0.00 0.00 0.00 67 1009.6
20260904152444 77 0 0.0 0.0 0.00 0.00 0.00 68 1009.6
20260904151943 77 0 0.0 0.0 0.00 0.00 0.00 67 1009.7
20260904151443 77 0 0.0 0.0 0.00 0.00 0.00 67 1009.9
20260904150943 76 0 0.0 0.0 0.00 0.00 0.00 69 1010.0
20260904150443 76 0 0.0 0.0 0.00 0.00 0.00 69 1010.1
20260904145943 76 0 0.0 0.0 0.00 0.00 0.00 69 1010.1
20260904145443 76 0 0.0 0.0 0.00 0.00 0.00 68 1010.2
20260904144444 76 0 0.0 0.0 0.00 0.00 0.00 69 1010.3
20260904143443 75 0 0.0 0.0 0.00 0.00 0.00 68 1010.5
20260904142945 75 0 0.0 0.0 0.00 0.00 0.00 70 1010.5
20260904141943 75 0 0.0 0.0 0.00 0.00 0.00 70 1010.7
20260904141444 75 0 0.0 0.0 0.00 0.00 0.00 70 1010.7
20260904140443 75 0 0.0 0.0 0.00 0.00 0.00 71 1010.8